Weather History for Blackpool, United Kingdom

Change the Weather History Date:

Sunday, November 25, 2012

  Actual Average Record
Temperature  
Mean Temperature 42 °F -  
Max Temperature 46 °F 44 °F 53 °F (2001)
Min Temperature 39 °F 38 °F 28 °F (2013)
Degree Days  
Heating Degree Days 22    
Moisture  
Dew Point 40 °F    
Average Humidity 84    
Maximum Humidity 100    
Minimum Humidity 69    
Precipitation  
Precipitation 0.08 in - - ()
Sea Level Pressure  
Sea Level Pressure 29.54 in    
Wind  
Wind Speed 14 mph ()    
Max Wind Speed 25 mph    
Max Gust Speed 33 mph    
Visibility 5.9 miles    
Events Rain    
Averages and records for this station are not official NWS values.
T = Trace of Precipitation, MM = Missing Value Source: Averaged Metar Reports

Daily Weather History Graph

Daily Weather History Graph

Search for Another Location

Airport:

Trip Planner

Search our weather history database for the weather conditions in past years. The results will help you decide how hot, cold, wet, or windy it might be!

Date:

Astronomy

Nov. 25, 2012 Rise Set
Actual Time 7:57 AM GMT 4:00 PM GMT
Civil Twilight 7:16 AM GMT 4:41 PM GMT
Nautical Twilight 6:32 AM GMT 5:25 PM GMT
Astronomical Twilight 5:49 AM GMT 6:08 PM GMT
Moon 2:26 PM GMT (11/25) 4:37 AM GMT (11/25)
Length of Visible Light 9h 25m
Length of Day
8h 03m
Waxing Gibbous, 91% of the Moon is Illuminated
Nov 25
Waxing Gibbous
Nov 28
Full
Dec 6
Last Quarter
Dec 13
New
Dec 20
First Quarter

Hourly Weather History & Observations

Time (GMT) Temp. Windchill Dew Point Humidity Pressure Visibility Wind Dir Wind Speed Gust Speed Precip Events Conditions
2:50 AM 44 °F - 43 °F 93%  in - NE 6.9 mph - -  
5:50 AM 44 °F - 42 °F 92%  in - NW 20.7 mph - -  
5:50 AM 44.6 °F 36.6 °F 42.8 °F 93% 29.39 in 5.6 mi NW 19.6 mph - N/A Rain Light Rain
6:20 AM 44.6 °F 36.9 °F 42.8 °F 93% 29.42 in 5.6 mi NW 18.4 mph - N/A Rain Light Rain
6:50 AM 44.6 °F 36.9 °F 44.6 °F 100% 29.42 in 5.6 mi WNW 18.4 mph - N/A Rain Light Rain
7:20 AM 44.6 °F 35.7 °F 42.8 °F 93% 29.44 in 5.6 mi WNW 24.2 mph - N/A Rain Rain
7:50 AM 44.6 °F 35.5 °F 42.8 °F 93% 29.44 in 5.6 mi WNW 25.3 mph - N/A Rain Light Rain
8:20 AM 44.6 °F 35.7 °F 42.8 °F 93% 29.47 in 5.6 mi WNW 24.2 mph - N/A   Mostly Cloudy
8:50 AM 45 °F - 40 °F 75%  in - WNW 21.9 mph - -  
8:50 AM 44.6 °F 36.4 °F 41.0 °F 87% 29.50 in 6.2 mi WNW 20.7 mph - N/A   Mostly Cloudy
9:20 AM 46.4 °F 38.1 °F 41.0 °F 81% 29.50 in 6.2 mi WNW 24.2 mph - N/A   Mostly Cloudy
9:50 AM 46.4 °F 38.5 °F 41.0 °F 81% 29.53 in 6.2 mi WNW 21.9 mph 33.4 mph N/A   Mostly Cloudy
10:20 AM 46.4 °F 39.0 °F 41.0 °F 81% 29.56 in 6.2 mi WNW 19.6 mph - N/A   Mostly Cloudy
10:50 AM 46.4 °F 38.5 °F 41.0 °F 81% 29.56 in 6.2 mi WNW 21.9 mph 33.4 mph N/A Rain Rain
11:20 AM 46.4 °F 37.9 °F 39.2 °F 76% 29.56 in 6.2 mi West 25.3 mph - N/A   Scattered Clouds
11:50 AM 46 °F - 39 °F 69%  in - West 19.6 mph - -  
11:50 AM 46.4 °F 38.7 °F 39.2 °F 76% 29.56 in 6.2 mi WNW 20.7 mph - N/A   Partly Cloudy
12:20 PM 48.2 °F - 39.2 °F 71% 29.59 in 6.2 mi West 18.4 mph - N/A   Scattered Clouds
1:20 PM 48.2 °F - 39.2 °F 71% 29.59 in 6.2 mi WNW 13.8 mph - N/A   Partly Cloudy
1:50 PM 48.2 °F - 39.2 °F 71% 29.59 in 6.2 mi West 13.8 mph - N/A   Partly Cloudy
2:20 PM 46.4 °F 41.5 °F 39.2 °F 76% 29.59 in 6.2 mi West 10.4 mph - N/A   Partly Cloudy
2:50 PM 45 °F - 38 °F 70%  in - West 10.4 mph - -  
2:50 PM 46.4 °F 41.1 °F 39.2 °F 76% 29.59 in 6.2 mi West 11.5 mph - N/A   Partly Cloudy
3:20 PM 46.4 °F 42.9 °F 37.4 °F 71% 29.59 in 6.2 mi West 6.9 mph - N/A   Partly Cloudy
3:50 PM 44.6 °F 43.1 °F 37.4 °F 76% 29.59 in 6.2 mi NW 3.5 mph - N/A   Partly Cloudy
4:20 PM 44.6 °F - 37.4 °F 76% 29.59 in 6.2 mi Variable 2.3 mph - N/A   Partly Cloudy
4:50 PM 41.0 °F - 35.6 °F 81% 29.59 in 6.2 mi ENE 2.3 mph - N/A   Partly Cloudy
5:20 PM 41.0 °F 39.0 °F 37.4 °F 87% 29.59 in 6.2 mi East 3.5 mph - N/A   Partly Cloudy
5:50 PM 39 °F - 37 °F 91%  in - ESE 5.8 mph - -  
5:50 PM 39.2 °F 35.9 °F 37.4 °F 93% 29.59 in 6.2 mi ESE 4.6 mph - N/A   Partly Cloudy
6:20 PM 41.0 °F 39.0 °F 39.2 °F 93% 29.59 in 6.2 mi East 3.5 mph - N/A   Partly Cloudy
6:50 PM 41.0 °F 38.0 °F 39.2 °F 93% 29.59 in 6.2 mi East 4.6 mph - N/A   Scattered Clouds
7:20 PM 41.0 °F 38.0 °F 39.2 °F 93% 29.59 in 4.3 mi East 4.6 mph - N/A Rain Light Rain
7:50 PM 41.0 °F 37.1 °F 39.2 °F 93% 29.56 in 4.3 mi East 5.8 mph - N/A Rain Light Rain
8:20 PM 41.0 °F 36.4 °F 39.2 °F 93% 29.56 in 5.0 mi East 6.9 mph - N/A Rain Light Rain
8:50 PM 41 °F - 38 °F 86%  in - ENE 10.4 mph - -  
8:50 PM 41.0 °F 35.2 °F 39.2 °F 93% 29.56 in 6.2 mi ENE 9.2 mph - N/A Rain Light Rain
11:50 PM 41 °F - 39 °F 91%  in - East 17.3 mph - -